QPF
0.04 0.07 0.06 0.03 0.01 0.01 0.00 0.00 0.00 0.01 0.02 0.02 0.01 0.00 0.00 0.00 0.00 0.00 0.00 0.00 0.00 0.01 0.01 0.01 0.02 0.02 0.01 0.02 0.02 0.02 0.02 0.02 0.02 0.01 0.00 0.00 0.00 0.00 0.00 0.00 0.00 0.00 0.00 0.00
0.05 0.05 0.03 0.01 0.01 0.01 0.00 0.00 0.00 0.00 0.01 0.02 0.02 0.00 0.00 0.00 0.00 0.00 0.00 0.00 0.01 0.01 0.01 0.02 0.02 0.01 0.01 0.01 0.01 0.02 0.02 0.03 0.02 0.01 0.00 0.00 0.00 0.00 0.00 0.00 0.00 0.00 0.00 0.00
0.06 0.03 0.01 0.01 0.01 0.01 0.01 0.01 0.00 0.00 0.01 0.02 0.02 0.01 0.00 0.00 0.00 0.00 0.00 0.00 0.01 0.00 0.00 0.01 0.01 0.01 0.00 0.00 0.01 0.01 0.01 0.02 0.02 0.02 0.01 0.00 0.00 0.00 0.00 0.00 0.00 0.00 0.00 0.00
0.05 0.02 0.02 0.03 0.02 0.01 0.01 0.00 0.00 0.00 0.01 0.02 0.02 0.01 0.00 0.00 0.00 0.00 0.00 0.00 0.01 0.00 0.00 0.00 0.00 0.00 0.00 0.00 0.01 0.01 0.01 0.01 0.02 0.01 0.01 0.00 0.00 0.00 0.00 0.00 0.00 0.00 0.00 0.00
0.06 0.03 0.03 0.03 0.02 0.02 0.01 0.00 0.00 0.00 0.00 0.01 0.01 0.01 0.00 0.00 0.00 0.00 0.00 0.00 0.01 0.01 0.00 0.00 0.00 0.00 0.01 0.00 0.00 0.01 0.01 0.01 0.01 0.01 0.01 0.00 0.01 0.00 0.01 0.00 0.00 0.00 0.00 0.00
0.04 0.04 0.04 0.02 0.02 0.02 0.02 0.01 0.02 0.02 0.02 0.02 0.01 0.01 0.00 0.00 0.00 0.00 0.00 0.00 0.00 0.01 0.01 0.00 0.01 0.01 0.01 0.00 0.00 0.01 0.01 0.01 0.01 0.01 0.00 0.00 0.00 0.01 0.00 0.00 0.00 0.00 0.00 0.00
0.06 0.05 0.05 0.03 0.04 0.06 0.04 0.04 0.07 0.09 0.07 0.03 0.00 0.01 0.00 0.00 0.01 0.00 0.00 0.00 0.00 0.00 0.01 0.01 0.01 0.01 0.01 0.01 0.00 0.00 0.01 0.01 0.00 0.00 0.00 0.00 0.00 0.00 0.00 0.00 0.01 0.00 0.00 0.00
0.06 0.07 0.05 0.04 0.06 0.09 0.06 0.03 0.03 0.04 0.03 0.01 0.00 0.00 0.00 0.00 0.00 0.00 0.00 0.00 0.00 0.00 0.00 0.00 0.01 0.01 0.01 0.01 0.01 0.01 0.01 0.01 0.01 0.00 0.00 0.00 0.00 0.00 0.00 0.00 0.00 0.01 0.01 0.00
0.05 0.05 0.03 0.03 0.03 0.04 0.05 0.03 0.02 0.02 0.01 0.00 0.00 0.00 0.00 0.00 0.00 0.00 0.00 0.00 0.00 0.00 0.00 0.00 0.00 0.00 0.01 0.01 0.01 0.01 0.01 0.01 0.01 0.01 0.00 0.00 0.00 0.00 0.00 0.00 0.00 0.00 0.00 0.00
0.07 0.06 0.04 0.03 0.04 0.04 0.03 0.02 0.03 0.03 0.02 0.01 0.01 0.00 0.00 0.00 0.00 0.00 0.00 0.00 0.00 0.00 0.00 0.00 0.00 0.00 0.00 0.01 0.01 0.01 0.01 0.01 0.01 0.01 0.00 0.00 0.00 0.00 0.00 0.00 0.00 0.00 0.00 0.00
0.07 0.07 0.06 0.05 0.06 0.06 0.04 0.04 0.03 0.03 0.02 0.01 0.01 0.01 0.01 0.01 0.00 0.00 0.00 0.00 0.00 0.00 0.00 0.00 0.00 0.00 0.00 0.00 0.01 0.01 0.01 0.01 0.01 0.00 0.00 0.00 0.00 0.00 0.00 0.00 0.00 0.00 0.00 0.00
0.07 0.06 0.07 0.06 0.03 0.02 0.01 0.03 0.03 0.02 0.01 0.01 0.01 0.01 0.00 0.00 0.00 0.00 0.00 0.00 0.00 0.00 0.00 0.00 0.00 0.00 0.00 0.00 0.00 0.00 0.00 0.00 0.00 0.00 0.00 0.00 0.00 0.00 0.00 0.00 0.00 0.00 0.00 0.00
0.09 0.08 0.07 0.09 0.06 0.03 0.03 0.01 0.02 0.03 0.02 0.01 0.01 0.01 0.00 0.00 0.00 0.00 0.00 0.00 0.00 0.00 0.00 0.00 0.00 0.00 0.00 0.00 0.00 0.00 0.00 0.00 0.00 0.00 0.00 0.00 0.00 0.00 0.00 0.00 0.00 0.00 0.00 0.00
0.09 0.08 0.05 0.05 0.05 0.04 0.03 0.02 0.01 0.03 0.03 0.01 0.01 0.00 0.00 0.00 0.00 0.00 0.00 0.00 0.00 0.00 0.00 0.00 0.00 0.00 0.00 0.00 0.00 0.00 0.00 0.00 0.00 0.00 0.00 0.00 0.00 0.00 0.00 0.00 0.00 0.00 0.00 0.00
0.07 0.05 0.03 0.01 0.01 0.01 0.02 0.02 0.02 0.02 0.02 0.01 0.00 0.00 0.00 0.00 0.00 0.00 0.00 0.00 0.00 0.00 0.00 0.00 0.00 0.00 0.00 0.00 0.00 0.00 0.00 0.00 0.00 0.00 0.00 0.00 0.00 0.00 0.00 0.00 0.00 0.00 0.00 0.00
0.05 0.04 0.03 0.01 0.00 0.00 0.01 0.01 0.02 0.02 0.01 0.01 0.00 0.00 0.00 0.00 0.00 0.00 0.00 0.00 0.00 0.00 0.00 0.00 0.00 0.00 0.00 0.00 0.00 0.00 0.00 0.00 0.00 0.00 0.00 0.00 0.00 0.00 0.00 0.00 0.00 0.00 0.00 0.00
0.04 0.03 0.03 0.03 0.01 0.01 0.02 0.02 0.02 0.02 0.01 0.01 0.01 0.00 0.00 0.00 0.00 0.00 0.00 0.00 0.00 0.00 0.00 0.00 0.00 0.00 0.00 0.00 0.00 0.00 0.00 0.00 0.00 0.00 0.00 0.00 0.00 0.00 0.00 0.00 0.00 0.00 0.00 0.00
0.04 0.03 0.04 0.03 0.03 0.04 0.03 0.02 0.02 0.02 0.02 0.01 0.01 0.00 0.00 0.00 0.00 0.00 0.00 0.00 0.00 0.00 0.00 0.00 0.00 0.00 0.00 0.00 0.00 0.00 0.00 0.00 0.00 0.00 0.00 0.00 0.00 0.00 0.00 0.00 0.00 0.00 0.00 0.00
0.03 0.04 0.05 0.04 0.04 0.03 0.02 0.01 0.02 0.03 0.02 0.02 0.01 0.00 0.00 0.00 0.00 0.00 0.00 0.00 0.00 0.00 0.00 0.00 0.00 0.00 0.00 0.00 0.00 0.00 0.00 0.00 0.00 0.00 0.00 0.00 0.00 0.00 0.00 0.00 0.00 0.00 0.00 0.00
0.02 0.04 0.05 0.04 0.03 0.03 0.02 0.01 0.01 0.03 0.03 0.02 0.02 0.02 0.01 0.01 0.01 0.01 0.00 0.00 0.00 0.00 0.00 0.00 0.00 0.00 0.00 0.00 0.00 0.01 0.00 0.00 0.00 0.00 0.00 0.00 0.00 0.00 0.00 0.00 0.00 0.00 0.00 0.00
0.02 0.04 0.05 0.04 0.03 0.02 0.01 0.01 0.01 0.02 0.03 0.02 0.02 0.02 0.02 0.02 0.02 0.01 0.01 0.00 0.00 0.00 0.00 0.00 0.00 0.00 0.00 0.00 0.01 0.01 0.01 0.00 0.00 0.00 0.00 0.00 0.00 0.00 0.00 0.00 0.00 0.00 0.00 0.00
0.02 0.03 0.04 0.04 0.03 0.02 0.01 0.01 0.02 0.03 0.02 0.02 0.02 0.02 0.02 0.03 0.03 0.02 0.02 0.01 0.01 0.01 0.00 0.00 0.00 0.00 0.00 0.00 0.00 0.01 0.01 0.00 0.00 0.00 0.00 0.00 0.00 0.00 0.00 0.00 0.00 0.00 0.00 0.00
0.02 0.03 0.03 0.02 0.02 0.02 0.02 0.02 0.02 0.02 0.02 0.02 0.03 0.03 0.03 0.04 0.03 0.02 0.02 0.02 0.02 0.01 0.01 0.01 0.00 0.00 0.00 0.00 0.00 0.01 0.01 0.00 0.00 0.00 0.00 0.00 0.00 0.00 0.00 0.00 0.00 0.00 0.00 0.00
0.02 0.02 0.02 0.02 0.02 0.02 0.02 0.02 0.02 0.01 0.01 0.02 0.03 0.03 0.03 0.03 0.04 0.03 0.02 0.02 0.01 0.01 0.01 0.01 0.01 0.01 0.01 0.01 0.01 0.01 0.01 0.01 0.00 0.00 0.00 0.00 0.00 0.00 0.00 0.00 0.01 0.00 0.00 0.00
0.02 0.02 0.02 0.02 0.02 0.02 0.02 0.02 0.02 0.01 0.01 0.02 0.02 0.02 0.02 0.02 0.02 0.03 0.03 0.02 0.02 0.02 0.02 0.01 0.01 0.01 0.01 0.01 0.01 0.01 0.01 0.01 0.00 0.00 0.00 0.01 0.01 0.01 0.01 0.01 0.00 0.00 0.00 0.01
0.03 0.03 0.02 0.02 0.02 0.02 0.02 0.02 0.02 0.01 0.01 0.01 0.01 0.02 0.02 0.01 0.01 0.02 0.02 0.03 0.02 0.02 0.01 0.01 0.01 0.01 0.00 0.00 0.00 0.00 0.00 0.01 0.01 0.01 0.01 0.01 0.01 0.01 0.01 0.01 0.00 0.00 0.00 0.00
MSLP
1012.36 1012.30 1012.32 1012.40 1012.56 1012.77 1013.00 1013.20 1013.31 1013.30 1013.13 1012.79 1012.30 1011.69 1011.02 1010.36 1009.79 1009.34 1009.07 1008.98 1009.07 1009.32 1009.70 1010.17 1010.71 1011.30 1011.91 1012.56 1013.23 1013.91 1014.61 1015.31 1015.99 1016.65 1017.28 1017.87 1018.42 1018.94 1019.45 1019.94 1020.42 1020.89 1021.35 1021.78
1012.12 1012.00 1011.96 1012.02 1012.18 1012.41 1012.68 1012.94 1013.11 1013.14 1012.98 1012.63 1012.10 1011.41 1010.66 1009.90 1009.22 1008.68 1008.32 1008.17 1008.21 1008.42 1008.77 1009.23 1009.76 1010.34 1010.96 1011.62 1012.32 1013.06 1013.81 1014.58 1015.32 1016.04 1016.71 1017.32 1017.89 1018.42 1018.93 1019.43 1019.94 1020.46 1020.98 1021.49
1012.00 1011.79 1011.69 1011.70 1011.83 1012.06 1012.35 1012.62 1012.81 1012.85 1012.69 1012.30 1011.71 1010.95 1010.10 1009.25 1008.48 1007.86 1007.44 1007.23 1007.22 1007.39 1007.70 1008.12 1008.61 1009.17 1009.78 1010.45 1011.17 1011.96 1012.78 1013.61 1014.43 1015.21 1015.94 1016.59 1017.18 1017.72 1018.23 1018.74 1019.28 1019.84 1020.43 1021.01
1012.04 1011.73 1011.54 1011.47 1011.54 1011.73 1011.98 1012.24 1012.40 1012.40 1012.19 1011.74 1011.07 1010.23 1009.30 1008.38 1007.55 1006.88 1006.43 1006.19 1006.15 1006.29 1006.57 1006.94 1007.38 1007.89 1008.47 1009.12 1009.85 1010.66 1011.54 1012.44 1013.34 1014.20 1014.98 1015.68 1016.29 1016.84 1017.36 1017.88 1018.44 1019.04 1019.68 1020.35
1012.31 1011.88 1011.57 1011.39 1011.37 1011.47 1011.64 1011.82 1011.90 1011.82 1011.51 1010.96 1010.20 1009.28 1008.28 1007.32 1006.47 1005.80 1005.36 1005.13 1005.11 1005.25 1005.50 1005.83 1006.21 1006.65 1007.16 1007.76 1008.47 1009.28 1010.18 1011.13 1012.10 1013.02 1013.87 1014.62 1015.27 1015.84 1016.36 1016.89 1017.46 1018.09 1018.79 1019.53
1012.83 1012.28 1011.84 1011.54 1011.39 1011.36 1011.41 1011.46 1011.40 1011.18 1010.74 1010.06 1009.19 1008.19 1007.14 1006.16 1005.34 1004.72 1004.34 1004.19 1004.22 1004.39 1004.64 1004.93 1005.24 1005.59 1006.00 1006.51 1007.14 1007.90 1008.79 1009.76 1010.76 1011.75 1012.66 1013.46 1014.15 1014.75 1015.29 1015.83 1016.41 1017.07 1017.80 1018.61
1013.63 1012.96 1012.40 1011.97 1011.68 1011.51 1011.40 1011.27 1011.04 1010.64 1010.02 1009.19 1008.19 1007.11 1006.03 1005.07 1004.30 1003.79 1003.52 1003.48 1003.61 1003.84 1004.10 1004.36 1004.59 1004.83 1005.11 1005.47 1005.97 1006.63 1007.45 1008.39 1009.40 1010.42 1011.37 1012.23 1012.97 1013.61 1014.18 1014.74 1015.34 1016.02 1016.79 1017.64
1014.67 1013.91 1013.25 1012.70 1012.29 1011.97 1011.69 1011.37 1010.93 1010.32 1009.51 1008.51 1007.38 1006.21 1005.11 1004.19 1003.52 1003.13 1003.01 1003.12 1003.36 1003.67 1003.96 1004.18 1004.33 1004.42 1004.53 1004.71 1005.03 1005.53 1006.23 1007.09 1008.06 1009.08 1010.06 1010.97 1011.77 1012.46 1013.08 1013.68 1014.31 1015.00 1015.80 1016.68
1015.85 1015.05 1014.33 1013.71 1013.19 1012.74 1012.29 1011.79 1011.15 1010.32 1009.31 1008.14 1006.88 1005.64 1004.53 1003.65 1003.08 1002.83 1002.88 1003.14 1003.52 1003.91 1004.22 1004.40 1004.44 1004.38 1004.28 1004.24 1004.34 1004.63 1005.16 1005.89 1006.79 1007.77 1008.77 1009.71 1010.57 1011.33 1012.01 1012.66 1013.33 1014.05 1014.86 1015.76
1017.06 1016.27 1015.54 1014.88 1014.30 1013.75 1013.17 1012.50 1011.67 1010.66 1009.46 1008.13 1006.75 1005.45 1004.33 1003.52 1003.05 1002.93 1003.12 1003.53 1004.02 1004.49 1004.82 1004.95 1004.87 1004.63 1004.32 1004.04 1003.88 1003.94 1004.26 1004.83 1005.61 1006.53 1007.51 1008.48 1009.40 1010.23 1010.98 1011.70 1012.42 1013.17 1014.00 1014.90
1018.14 1017.40 1016.70 1016.05 1015.45 1014.84 1014.18 1013.39 1012.41 1011.24 1009.90 1008.44 1006.98 1005.63 1004.52 1003.76 1003.38 1003.38 1003.69 1004.21 1004.80 1005.31 1005.64 1005.70 1005.51 1005.10 1004.57 1004.05 1003.64 1003.45 1003.54 1003.92 1004.56 1005.39 1006.34 1007.32 1008.28 1009.17 1010.01 1010.80 1011.57 1012.37 1013.22 1014.13
1018.97 1018.29 1017.66 1017.05 1016.46 1015.84 1015.12 1014.25 1013.18 1011.92 1010.48 1008.95 1007.44 1006.08 1004.99 1004.27 1003.97 1004.06 1004.46 1005.06 1005.70 1006.23 1006.53 1006.54 1006.23 1005.67 1004.95 1004.21 1003.57 1003.14 1003.01 1003.20 1003.68 1004.41 1005.29 1006.26 1007.24 1008.19 1009.09 1009.95 1010.79 1011.64 1012.52 1013.43
1019.45 1018.85 1018.28 1017.73 1017.17 1016.56 1015.83 1014.93 1013.82 1012.51 1011.04 1009.50 1008.00 1006.66 1005.61 1004.96 1004.72 1004.87 1005.32 1005.95 1006.61 1007.14 1007.41 1007.35 1006.95 1006.27 1005.40 1004.48 1003.65 1003.03 1002.70 1002.71 1003.04 1003.64 1004.44 1005.36 1006.33 1007.31 1008.26 1009.17 1010.07 1010.96 1011.87 1012.79
1019.58 1019.04 1018.52 1018.02 1017.49 1016.90 1016.18 1015.29 1014.20 1012.92 1011.48 1009.99 1008.55 1007.28 1006.31 1005.72 1005.53 1005.72 1006.20 1006.83 1007.47 1007.96 1008.20 1008.08 1007.62 1006.86 1005.90 1004.87 1003.91 1003.14 1002.66 1002.51 1002.68 1003.15 1003.84 1004.68 1005.61 1006.58 1007.54 1008.48 1009.41 1010.34 1011.27 1012.20
1019.42 1018.91 1018.41 1017.92 1017.42 1016.85 1016.16 1015.32 1014.29 1013.09 1011.76 1010.38 1009.06 1007.91 1007.04 1006.53 1006.39 1006.60 1007.06 1007.67 1008.26 1008.71 1008.90 1008.75 1008.25 1007.46 1006.47 1005.40 1004.37 1003.52 1002.92 1002.64 1002.68 1003.00 1003.56 1004.30 1005.14 1006.05 1006.98 1007.91 1008.84 1009.78 1010.72 1011.66
1019.08 1018.55 1018.04 1017.55 1017.05 1016.51 1015.87 1015.10 1014.17 1013.10 1011.92 1010.71 1009.56 1008.57 1007.83 1007.40 1007.32 1007.53 1007.97 1008.52 1009.05 1009.44 1009.57 1009.40 1008.90 1008.12 1007.15 1006.09 1005.07 1004.18 1003.53 1003.15 1003.06 1003.25 1003.66 1004.25 1004.97 1005.76 1006.61 1007.48 1008.38 1009.29 1010.22 1011.15
1018.69 1018.12 1017.58 1017.06 1016.56 1016.04 1015.45 1014.78 1013.99 1013.09 1012.10 1011.10 1010.16 1009.35 1008.75 1008.43 1008.38 1008.59 1008.97 1009.45 1009.90 1010.21 1010.30 1010.11 1009.63 1008.90 1007.99 1006.99 1006.01 1005.15 1004.47 1004.03 1003.84 1003.88 1004.14 1004.56 1005.11 1005.76 1006.48 1007.24 1008.06 1008.91 1009.79 1010.68
1018.37 1017.75 1017.17 1016.63 1016.12 1015.63 1015.12 1014.56 1013.92 1013.22 1012.46 1011.68 1010.96 1010.34 1009.90 1009.67 1009.65 1009.84 1010.16 1010.54 1010.88 1011.11 1011.14 1010.93 1010.48 1009.82 1009.00 1008.10 1007.21 1006.40 1005.73 1005.25 1004.98 1004.89 1004.98 1005.23 1005.59 1006.05 1006.60 1007.23 1007.91 1008.66 1009.46 1010.28
1018.19 1017.53 1016.93 1016.38 1015.90 1015.46 1015.04 1014.60 1014.14 1013.64 1013.10 1012.56 1012.04 1011.61 1011.31 1011.15 1011.15 1011.29 1011.53 1011.80 1012.03 1012.16 1012.13 1011.90 1011.48 1010.88 1010.16 1009.37 1008.58 1007.85 1007.22 1006.73 1006.39 1006.19 1006.13 1006.19 1006.36 1006.63 1007.00 1007.45 1007.98 1008.59 1009.27 1010.00
1018.15 1017.49 1016.90 1016.39 1015.96 1015.60 1015.29 1015.00 1014.70 1014.39 1014.06 1013.73 1013.40 1013.13 1012.93 1012.82 1012.82 1012.90 1013.04 1013.18 1013.29 1013.32 1013.21 1012.96 1012.56 1012.03 1011.41 1010.73 1010.05 1009.40 1008.83 1008.34 1007.95 1007.67 1007.48 1007.38 1007.37 1007.46 1007.63 1007.91 1008.27 1008.73 1009.28 1009.88
1018.20 1017.60 1017.08 1016.64 1016.31 1016.05 1015.87 1015.72 1015.59 1015.45 1015.29 1015.12 1014.94 1014.78 1014.65 1014.56 1014.53 1014.53 1014.56 1014.58 1014.56 1014.48 1014.31 1014.03 1013.65 1013.18 1012.64 1012.08 1011.50 1010.94 1010.43 1009.96 1009.56 1009.21 1008.92 1008.70 1008.55 1008.47 1008.48 1008.59 1008.80 1009.11 1009.51 1009.98
1018.30 1017.81 1017.40 1017.09 1016.88 1016.76 1016.70 1016.68 1016.68 1016.68 1016.64 1016.58 1016.50 1016.40 1016.29 1016.19 1016.10 1016.02 1015.94 1015.84 1015.72 1015.54 1015.30 1015.00 1014.63 1014.21 1013.76 1013.29 1012.81 1012.35 1011.90 1011.48 1011.08 1010.70 1010.36 1010.05 1009.80 1009.60 1009.49 1009.46 1009.54 1009.71 1009.98 1010.32
1018.39 1018.05 1017.80 1017.65 1017.58 1017.59 1017.66 1017.75 1017.84 1017.92 1017.96 1017.95 1017.90 1017.81 1017.69 1017.54 1017.39 1017.22 1017.04 1016.84 1016.62 1016.37 1016.08 1015.77 1015.42 1015.06 1014.68 1014.29 1013.91 1013.53 1013.15 1012.78 1012.41 1012.04 1011.68 1011.34 1011.03 1010.77 1010.58 1010.46 1010.44 1010.51 1010.66 1010.89
1018.45 1018.30 1018.23 1018.24 1018.32 1018.45 1018.61 1018.78 1018.92 1019.03 1019.07 1019.06 1018.99 1018.86 1018.69 1018.49 1018.26 1018.02 1017.76 1017.48 1017.20 1016.90 1016.59 1016.28 1015.96 1015.64 1015.33 1015.03 1014.72 1014.43 1014.13 1013.81 1013.49 1013.16 1012.82 1012.48 1012.17 1011.89 1011.66 1011.51 1011.43 1011.43 1011.51 1011.65
1018.52 1018.55 1018.65 1018.81 1019.02 1019.25 1019.48 1019.67 1019.82 1019.89 1019.90 1019.83 1019.70 1019.50 1019.27 1019.00 1018.70 1018.39 1018.08 1017.76 1017.44 1017.12 1016.81 1016.52 1016.23 1015.96 1015.71 1015.47 1015.24 1015.02 1014.79 1014.54 1014.28 1014.00 1013.70 1013.41 1013.12 1012.87 1012.66 1012.50 1012.41 1012.38 1012.41 1012.49
1018.63 1018.83 1019.08 1019.37 1019.67 1019.96 1020.20 1020.38 1020.48 1020.48 1020.41 1020.25 1020.03 1019.75 1019.44 1019.10 1018.75 1018.40 1018.06 1017.72 1017.40 1017.08 1016.79 1016.52 1016.27 1016.04 1015.84 1015.66 1015.48 1015.32 1015.14 1014.96 1014.76 1014.54 1014.31 1014.07 1013.84 1013.63 1013.46 1013.33 1013.26 1013.23 1013.25 1013.30
Thickness
5527 5533 5544 5558 5566 5575 5580 5583 5588 5593 5595 5597 5604 5611 5617 5620 5623 5629 5634 5637 5639 5642 5644 5644 5643 5643 5643 5642 5642 5641 5639 5637 5635 5634 5633 5631 5629 5627 5625 5623 5622 5621 5620 5619
5518 5529 5546 5552 5555 5559 5566 5572 5579 5580 5582 5587 5593 5601 5609 5612 5616 5622 5627 5630 5633 5634 5635 5636 5636 5636 5636 5636 5636 5635 5634 5632 5631 5630 5628 5626 5623 5620 5618 5616 5615 5614 5613 5612
5516 5531 5537 5538 5543 5548 5556 5565 5571 5572 5571 5577 5581 5592 5603 5605 5609 5613 5618 5623 5625 5627 5629 5629 5629 5629 5630 5631 5631 5630 5629 5627 5625 5623 5621 5618 5615 5613 5611 5609 5608 5606 5605 5604
5506 5517 5524 5531 5537 5542 5548 5558 5561 5561 5564 5569 5574 5585 5603 5604 5602 5605 5610 5615 5618 5620 5622 5624 5624 5624 5625 5625 5624 5624 5622 5621 5619 5618 5616 5616 5615 5612 5609 5605 5602 5600 5598 5597
5499 5508 5515 5523 5533 5537 5545 5548 5551 5554 5557 5557 5565 5571 5597 5595 5599 5605 5608 5609 5611 5613 5616 5617 5618 5619 5619 5618 5617 5617 5616 5614 5613 5612 5611 5610 5609 5606 5602 5598 5596 5593 5591 5589
5491 5497 5505 5518 5526 5530 5533 5536 5537 5541 5544 5543 5564 5567 5588 5596 5602 5605 5604 5605 5605 5606 5607 5609 5610 5610 5611 5610 5609 5609 5609 5608 5606 5605 5604 5603 5602 5599 5596 5593 5590 5587 5585 5582
5481 5488 5496 5505 5512 5515 5525 5528 5524 5525 5530 5548 5561 5561 5581 5593 5593 5596 5597 5597 5598 5599 5599 5601 5601 5602 5602 5602 5602 5602 5602 5601 5599 5597 5596 5596 5594 5592 5590 5587 5584 5581 5579 5576
5478 5486 5492 5499 5508 5512 5520 5529 5531 5534 5541 5551 5546 5558 5575 5574 5576 5580 5583 5585 5588 5591 5592 5593 5594 5595 5595 5594 5595 5595 5595 5594 5592 5590 5589 5588 5585 5584 5582 5579 5577 5575 5573 5570
5476 5483 5488 5494 5500 5508 5511 5519 5529 5531 5534 5538 5548 5554 5559 5560 5563 5567 5571 5575 5578 5580 5582 5584 5585 5587 5587 5587 5587 5588 5588 5587 5585 5583 5581 5579 5577 5576 5574 5571 5569 5567 5564 5561
5463 5470 5480 5485 5492 5496 5508 5513 5512 5517 5524 5537 5546 5552 5565 5557 5558 5559 5562 5566 5567 5568 5571 5573 5575 5577 5578 5578 5578 5579 5579 5579 5577 5575 5573 5571 5569 5567 5565 5563 5561 5558 5556 5553
5453 5460 5468 5476 5483 5491 5494 5497 5506 5515 5523 5535 5541 5552 5551 5552 5551 5551 5553 5553 5554 5557 5560 5563 5565 5566 5567 5567 5568 5568 5569 5568 5567 5566 5564 5562 5560 5558 5556 5554 5552 5550 5547 5544
5445 5453 5460 5465 5471 5480 5491 5499 5502 5506 5507 5522 5538 5541 5531 5535 5537 5537 5539 5540 5541 5544 5547 5550 5552 5554 5555 5556 5557 5558 5559 5558 5557 5556 5555 5553 5551 5549 5548 5546 5543 5541 5538 5536
5436 5442 5454 5460 5462 5466 5473 5483 5488 5495 5502 5512 5525 5532 5520 5523 5524 5525 5526 5528 5529 5530 5534 5537 5539 5542 5543 5544 5545 5546 5548 5547 5546 5545 5545 5543 5541 5540 5538 5536 5534 5532 5529 5527
5432 5433 5449 5467 5473 5469 5467 5471 5475 5483 5493 5505 5519 5520 5513 5514 5514 5514 5514 5515 5517 5518 5521 5524 5527 5529 5531 5532 5534 5535 5535 5536 5535 5535 5534 5533 5532 5530 5529 5526 5524 5522 5520 5517
5420 5429 5435 5448 5457 5462 5465 5467 5470 5475 5487 5498 5510 5508 5508 5505 5505 5503 5502 5502 5504 5506 5508 5510 5513 5515 5517 5519 5521 5522 5523 5523 5523 5523 5523 5522 5521 5519 5518 5516 5514 5511 5509 5507
5405 5418 5426 5434 5445 5451 5452 5458 5464 5470 5477 5485 5490 5492 5494 5491 5490 5490 5491 5491 5493 5494 5496 5497 5499 5502 5504 5506 5507 5509 5510 5510 5511 5512 5511 5510 5509 5508 5507 5505 5503 5501 5498 5496
5399 5406 5423 5435 5434 5442 5447 5447 5453 5460 5466 5474 5483 5486 5480 5479 5479 5481 5481 5481 5482 5483 5484 5485 5488 5489 5491 5493 5494 5496 5497 5498 5499 5499 5498 5498 5497 5496 5495 5493 5492 5490 5488 5486
5387 5398 5411 5423 5427 5435 5437 5432 5438 5444 5447 5455 5462 5464 5466 5469 5467 5468 5470 5471 5471 5471 5472 5474 5475 5476 5478 5480 5481 5482 5484 5486 5486 5486 5485 5485 5484 5484 5483 5482 5480 5479 5477 5475
5386 5394 5406 5416 5426 5430 5425 5421 5423 5434 5438 5439 5446 5451 5451 5452 5455 5457 5456 5458 5460 5460 5461 5462 5463 5464 5465 5466 5468 5470 5471 5472 5473 5473 5472 5472 5472 5472 5471 5470 5469 5467 5466 5464
5379 5384 5399 5408 5422 5429 5420 5409 5410 5423 5434 5430 5433 5437 5439 5444 5457 5454 5445 5445 5446 5447 5448 5448 5449 5451 5452 5453 5455 5458 5459 5459 5459 5459 5459 5459 5459 5459 5459 5458 5457 5455 5454 5452
5374 5381 5389 5400 5409 5412 5395 5394 5405 5423 5429 5417 5421 5425 5428 5435 5443 5435 5432 5431 5433 5434 5434 5435 5436 5437 5438 5439 5442 5444 5444 5445 5444 5445 5445 5446 5446 5447 5447 5446 5445 5444 5443 5441
5369 5379 5379 5389 5401 5401 5379 5389 5398 5402 5400 5404 5408 5412 5414 5416 5417 5417 5417 5417 5419 5419 5419 5421 5422 5422 5423 5425 5428 5429 5429 5429 5430 5431 5433 5434 5434 5434 5433 5433 5432 5432 5431 5430
5352 5357 5367 5370 5375 5368 5366 5372 5377 5382 5388 5391 5395 5397 5399 5400 5402 5402 5403 5404 5404 5405 5406 5407 5408 5408 5409 5411 5413 5415 5414 5415 5417 5419 5420 5420 5420 5421 5421 5421 5420 5419 5418 5417
5343 5339 5348 5352 5355 5357 5359 5362 5367 5371 5375 5378 5382 5385 5388 5389 5389 5389 5390 5390 5391 5392 5393 5394 5396 5396 5396 5397 5398 5399 5400 5402 5404 5406 5407 5407 5408 5409 5408 5408 5407 5407 5406 5405
5329 5333 5340 5344 5346 5348 5351 5352 5355 5359 5363 5366 5369 5373 5375 5377 5377 5378 5379 5379 5379 5380 5381 5382 5384 5384 5384 5384 5385 5386 5387 5389 5392 5393 5394 5395 5395 5396 5396 5395 5395 5394 5394 5393
5315 5320 5334 5343 5336 5337 5338 5338 5342 5346 5349 5353 5357 5360 5362 5365 5365 5366 5367 5367 5367 5368 5369 5370 5371 5372 5372 5372 5373 5374 5375 5377 5379 5380 5381 5382 5383 5384 5384 5384 5384 5383 5382 5382